Regional Weather Roundup
Issued by NWS

Home | Current Version | Previous Version | Text Only | Print | Product List | Glossary Off
Versions: 1 2 3 4 5 6 7 8 9 10 11 12 13 14 15 16 17 18 19 20 21 22 23 24 25 26 27 28 29 30 31 32 33 34 35 36 37 38 39 40 41 42 43 44 45 46 47 48 49 50

000
ASUS43 KIND 251209
RWRIN

WEATHER ROUNDUP FOR INDIANA
NATIONAL WEATHER SERVICE INDIANAPOLIS IN
700 AM EST THU DEC 25 2014

NOTE: "FAIR" INDICATES FEW OR NO CLOUDS BELOW 12,000 FEET WITH NO
SIGNIFICANT WEATHER AND/OR OBSTRUCTIONS TO VISIBILITY.

* - STATION DOES NOT REPORT WEATHER SUCH AS PRECIPITATION OR FOG.

+ - STATION NOT QUALITY CONTROLLED BY THE NATIONAL WEATHER SERVICE.
    USE DATA WITH CAUTION...ESPECIALLY DEWPOINT AND RELATIVE
    HUMIDITY OBSERVATIONS.

INZ001>003-010>013-019-020-251300-
NORTHWEST INDIANA

CITY           SKY/WX    TMP DP  RH WIND       PRES   REMARKS
GARY /AIRPORT/ CLOUDY    36  27  69 W8        29.86R
KNOX *+        CLOUDY    34  28  76 W12G20    29.86R WCI  26
LA PORTE +     CLOUDY    36  32  85 W13G18    29.86R
6HR MIN TEMP:  36; 6HR MAX TEMP:  38;

MICHIGAN CITY+ CLOUDY    34  30  86 W12       29.86R WCI  25
MONTICELLO +   CLOUDY    35  31  85 W10G18    29.91R WCI  27
RENSSELAER +   CLOUDY    34  34 100 SW9       29.90R WCI  26
VALPARAISO     CLOUDY    34  29  82 W10       29.87R WCI  26
6HR MIN TEMP:  34; 6HR MAX TEMP:  36;


$$

LMZ046-743>745-251300-
SOUTHERN LAKE MICHIGAN

STATION/POSITION TIME  TEMP WIND        PRES
                       AIR  DIR/SP/G
                 (UTC) (F)  (DEG/KT/KT) (MB)
MICHIGAN CITY    1200   35  220/ 23/ 28   N/A

$$

INZ004-005-014>016-021>024-251300-
NORTH CENTRAL INDIANA

CITY           SKY/WX    TMP DP  RH WIND       PRES   REMARKS
GOSHEN         CLOUDY    36  32  85 W17G24    29.83R
6HR MIN TEMP:  36; 6HR MAX TEMP:  37; 6HR PCP: TRACE;

LOGANSPORT +   CLOUDY    34  30  86 W14G24    29.91R WCI  24
PERU/GRISSOM   CLOUDY    35  35 100 W15       29.90R WCI  25
6HR MIN TEMP:  35; 6HR MAX TEMP:  36; 6HR PCP:  0.01;

ROCHESTER +    CLOUDY    36  34  93 W12G18    29.89R
SOUTH BEND     NOT AVBL
WARSAW +       CLOUDY    36  32  87 W12G20    29.86R

$$

INZ006>009-017-018-025>027-251300-
NORTHEAST INDIANA

CITY           SKY/WX    TMP DP  RH WIND       PRES   REMARKS
ANGOLA *+      CLOUDY    36  32  87 W9        29.80R
AUBURN +       CLOUDY    36  32  87 W12G21    29.84R
FORT WAYNE     DRIZZLE   36  33  89 W18       29.87R
6HR MIN TEMP:  36; 6HR MAX TEMP:  37; 6HR PCP: TRACE;

HUNTINGTON +   CLOUDY    35  33  92 W12G21    29.87R WCI  27
6HR MIN TEMP:  34; 6HR MAX TEMP:  36;


$$

INZ028-029-035-036-043>045-051>053-251300-
WEST CENTRAL INDIANA

CITY           SKY/WX    TMP DP  RH WIND       PRES   REMARKS
GREENCASTLE +  CLOUDY    34  28  80 W8G16     29.95R WCI  27
LAFAYETTE      CLOUDY    35  31  85 W9        29.92R WCI  28
6HR MIN TEMP:  35; 6HR MAX TEMP:  36; 6HR PCP: TRACE;

TERRE HAUTE    CLOUDY    36  29  75 W14       29.98R
6HR MIN TEMP:  36; 6HR MAX TEMP:  38;


$$

INZ030>032-037>040-046>048-054>057-064-065-251300-
CENTRAL INDIANA

CITY           SKY/WX    TMP DP  RH WIND       PRES   REMARKS
CP ATTERBURY + CLOUDY    36  30  80 MISG      29.97R
FRANKFORT +    CLOUDY    35  35 100 SW13      29.94R WCI  26
INDIANAPOLIS   CLOUDY    34  31  88 SW13      29.94R WCI  25
6HR MIN TEMP:  34; 6HR MAX TEMP:  34; 6HR PCP:  0.01;

-EAGLE CREEK   CLOUDY    35  31  85 W6        29.93R WCI  30
6HR MIN TEMP:  35; 6HR MAX TEMP:  35; 6HR PCP:  0.02;

KOKOMO *+      CLOUDY    36  28  75 W22       29.90R
MARION +       CLOUDY    35  32  88 W17       29.91R WCI  24
MT COMFORT *+  CLOUDY    36  28  75 W14       29.94R
SHELBYVILLE    CLOUDY    38  31  76 W10       29.94R
6HR MIN TEMP:  37; 6HR MAX TEMP:  38; 6HR PCP:  0.01;

ZIONSVILLE +   CLOUDY    35  30  81 W12       29.93R WCI  27
6HR MIN TEMP:  35; 6HR MAX TEMP:  36;


$$

INZ033-034-041-042-049-050-058-059-251300-
EAST CENTRAL INDIANA

CITY           SKY/WX    TMP DP  RH WIND       PRES   REMARKS
MUNCIE         CLOUDY    36  31  82 W13       29.91R
6HR MIN TEMP:  35; 6HR MAX TEMP:  37; 6HR PCP:  0.01;


$$

INZ060-061-067>069-081>083-085>088-251300-
SOUTHWEST INDIANA

CITY           SKY/WX    TMP DP  RH WIND       PRES   REMARKS
EVANSVILLE     CLOUDY    40  32  73 SW9       30.04R
6HR MIN TEMP:  40; 6HR MAX TEMP:  40;

HUNTINGBURG *+ MOCLDY    37  32  81 SW8       30.03R
6HR MIN TEMP:  36; 6HR MAX TEMP:  37;

WASHINGTON +   CLOUDY    37  33  85 SW8       30.00R
6HR MIN TEMP:  37; 6HR MAX TEMP:  38;


$$

INZ062-063-066-070>080-084-089>092-251300-
SOUTH CENTRAL AND SOUTHEAST INDIANA

CITY           SKY/WX    TMP DP  RH WIND       PRES   REMARKS
BLOOMINGTON    CLOUDY    36  32  85 W5        29.97R
6HR MIN TEMP:  36; 6HR MAX TEMP:  37; 6HR PCP:  0.01;


$$




USA.gov is the U.S. government's official web portal to all federal, state and local government web resources and services.